[[{"header":{"parameterUnit":"m.s-1","parameterCategory":1,"la1":30.2991,"la2":30.254,"lo1":-89.0895,"lo2":-89.0444,"dy":0.0017,"dx":0.0017,"nx":28,"ny":28,"refTime":"2024-06-09T03:00:00:Z","depth":0,"parameterNumber":2,"parameterNumberName":"U-component_of_WINDS"},"data":[0,0,0,0,0,0,0,0,0,0,0,0,0,0,0,0,0,0,0,0,0,0,0,0,0,0,0,0,0,0,0,0,0,0,0,0,0,0,0,0,0,0,0,0,0,0,0,0,0,0,0,0,0,0,0,0,0,0,1.484,1.4841,0,1.4969,1.497,1.4972,1.5028,1.5028,1.5028,1.5028,1.5162,1.5166,1.517,0,0,0,0,0,0,0,0,0,0,0,0,0,1.4646,1.4649,1.484,1.4841,1.4843,1.4969,1.497,1.4972,1.5028,1.5028,1.5028,1.5028,1.5161,1.5166,1.517,0,0,0,0,0,0,0,0,0,0,0,0,0,1.4748,1.465,1.484,1.4886,1.4892,1.4968,1.4971,1.4973,1.5028,1.5028,1.5028,1.5028,1.516,1.5165,1.5171,1.5211,0,0,1.5188,1.519,0,0,0,0,0,0,0,0,1.4742,1.4755,1.4878,1.4883,1.4889,1.4982,1.4951,1.5053,1.5029,1.4977,1.5028,1.5027,1.5103,1.5113,1.5138,1.5218,1.5224,1.5188,1.5192,1.5194,1.5196,0,0,0,0,0,0,0,1.4735,1.475,1.4891,1.4879,1.4887,1.4902,1.4916,1.4971,1.504,1.4981,1.4985,1.5,1.5106,1.5132,1.5142,1.5225,1.5188,1.5193,1.5197,1.5199,1.5347,1.5347,0,0,0,0,0,0,1.472,1.4743,1.4887,1.4895,1.4813,1.4905,1.4921,1.4953,1.5039,1.5052,1.5,1.5002,1.5123,1.5135,1.5147,1.5201,1.5194,1.52,1.5203,1.5346,1.5347,1.5348,0,0,0,0,0,0,1.4715,1.4732,1.4882,1.482,1.4841,1.4909,1.4944,1.4955,1.4982,1.5054,1.5066,1.5014,1.5123,1.5139,1.5195,1.5206,1.5202,1.5207,1.5346,1.5347,1.5347,1.5309,0,0,0,0,0,0,1.4709,1.473,1.4745,1.482,1.4844,1.4927,1.4945,1.4958,1.4991,1.4995,1.507,1.5083,1.5124,1.5186,1.5201,1.5214,1.5212,1.5345,1.5346,1.5347,1.5309,1.5308,1.5307,0,0,0,0,0,1.4702,1.473,1.4746,1.4763,1.4864,1.4927,1.4941,1.4987,1.4992,1.5008,1.5055,1.508,1.5203,1.5192,1.5208,1.5223,1.5344,1.5346,1.5347,1.531,1.5308,1.5307,0,0,0,0,0,0,1.4655,1.474,1.4759,1.4811,1.4861,1.4937,1.4959,1.4984,1.5035,1.5037,1.5093,1.511,1.5161,1.5198,1.5184,1.5268,1.5276,1.528,1.5242,1.5241,1.524,1.523,1.5216,0,0,0,0,0,1.465,1.4693,1.4766,1.4805,1.4829,1.489,1.4919,1.4951,1.5005,1.5027,1.5078,1.513,1.5181,1.5213,1.5264,1.5315,1.5333,1.5334,1.5333,1.5332,1.5335,1.5366,1.5367,1.5352,1.5352,1.5351,0,0,1.4641,1.4693,1.4717,1.4797,1.484,1.4884,1.4907,1.4953,1.4987,1.5035,1.5091,1.513,1.5193,1.5247,1.5273,1.5279,1.5343,1.5333,1.5331,1.5336,1.5367,1.5369,1.537,1.5352,1.5352,1.5352,0,0,1.4648,1.4691,1.4729,1.4771,1.4836,1.4876,1.4885,1.4957,1.4984,1.5041,1.5078,1.512,1.5206,1.5249,1.5283,1.5307,1.5333,1.5322,1.5317,1.5346,1.5347,1.5349,1.5358,1.5361,1.5325,1.5325,1.5325,0,1.4629,1.4697,1.4745,1.479,1.4824,1.4868,1.4908,1.4947,1.5025,1.5048,1.5053,1.5162,1.5208,1.5274,1.528,1.5305,1.5318,1.5314,1.5343,1.5345,1.5347,1.5357,1.536,1.5324,1.5324,1.5324,1.5324,0,1.4671,1.4717,1.474,1.4814,1.4851,1.4892,1.4948,1.4981,1.5009,1.5049,1.5108,1.5164,1.5227,1.5245,1.5274,1.5315,1.5317,1.5332,1.5341,1.5346,1.5356,1.536,1.5321,1.5322,1.5322,1.5323,0,0,1.465,1.475,1.4758,1.4792,1.4867,1.4905,1.4949,1.501,1.5037,1.5089,1.5129,1.5201,1.5215,1.5253,1.5287,1.5313,1.533,1.5326,1.5328,1.5325,1.5381,1.5369,1.5372,1.5348,1.5349,1.5349,1.5375,0,1.4667,1.4747,1.4793,1.4855,1.4899,1.4943,1.4981,1.5032,1.5071,1.5115,1.5159,1.5209,1.5224,1.5247,1.5275,1.5322,1.5342,1.5321,1.5386,1.5388,1.5368,1.5377,1.5365,1.5387,1.538,1.538,1.5381,0,1.4698,1.4749,1.4815,1.4885,1.4906,1.494,1.5,1.5041,1.51,1.5127,1.517,1.5204,1.5254,1.5259,1.5329,1.5313,1.5343,1.537,1.5372,1.538,1.5384,1.5386,1.5395,1.5398,1.5387,1.5387,1.5386,0,1.4677,1.4762,1.4813,1.4841,1.4924,1.4947,1.4984,1.5042,1.5076,1.513,1.5153,1.5211,1.5243,1.5288,1.5338,1.5337,1.5404,1.5413,1.5428,1.5427,1.544,1.5438,1.5454,1.5458,1.5458,1.5458,1.5458,0,1.4691,1.473,1.4805,1.4836,1.4881,1.4934,1.4978,1.5017,1.5069,1.511,1.5152,1.5189,1.5252,1.5298,1.5338,1.539,1.5404,1.5428,1.5438,1.5424,1.5421,1.5444,1.5444,1.5459,1.5459,1.5459,1.5459,0,1.4675,1.4727,1.4785,1.4859,1.4879,1.4909,1.4974,1.5006,1.5047,1.5098,1.5114,1.5179,1.5235,1.5289,1.5364,1.5391,1.5443,1.5456,1.5423,1.5429,1.5441,1.5439,1.5472,1.5479,1.5478,1.5478,1.5478,0,1.4681,1.4712,1.479,1.4819,1.4854,1.4902,1.4937,1.4991,1.5026,1.5096,1.512,1.5179,1.5229,1.5317,1.5372,1.543,1.5445,1.5453,1.5454,1.544,1.5446,1.5444,1.5447,1.5451,1.5451,1.5451,1.5451,0,1.4686,1.471,1.4759,1.4816,1.4857,1.4905,1.4955,1.4977,1.5041,1.5079,1.5136,1.5175,1.5252,1.531,1.5375,1.5414,1.5443,1.545,1.5457,1.5443,1.5422,1.5434,1.542,1.5449,1.5449,1.5449,1.5449,1.5449,1.4682,1.4711,1.4771,1.4824,1.4867,1.4913,1.4947,1.4993,1.5041,1.5107,1.5137,1.5195,1.5255,1.5345,1.5383,1.543,1.5437,1.5447,1.5449,1.5451,1.5448,1.5415,1.5442,1.5442,1.5443,1.5443,1.5443,0,1.4689,1.473,1.4778,1.4846,1.4888,1.4912,1.4968,1.5002,1.5052,1.5105,1.5154,1.522,1.5278,1.5337,1.5398,1.5425,1.544,1.5439,1.5437,1.5446,1.5438,1.5426,1.5426,1.5426,1.5426,1.5426,1.5426,1.5425,1.4698,1.475,1.4781,1.4855,1.4896,1.4953,1.4983,1.5026,1.5069,1.5141,1.5188,1.5226,1.5283,1.5348,1.5402,1.5418,1.5439,1.5434,1.5454,1.5446,1.5447,1.5448,1.5437,1.5438,1.5438,1.5459,1.5459,1.5459]},{"header":{"parameterUnit":"m.s-1","parameterCategory":1,"la1":30.2991,"la2":30.254,"lo1":-89.0895,"lo2":-89.0444,"dy":0.0017,"dx":0.0017,"nx":28,"ny":28,"refTime":"2024-06-09T03:00:00:Z","depth":0,"parameterNumber":3,"parameterNumberName":"V-component_of_WINDS"},"data":[0,0,0,0,0,0,0,0,0,0,0,0,0,0,0,0,0,0,0,0,0,0,0,0,0,0,0,0,0,0,0,0,0,0,0,0,0,0,0,0,0,0,0,0,0,0,0,0,0,0,0,0,0,0,0,0,0,0,-0.7686,-0.7687,0,-0.7802,-0.7803,-0.7805,-0.7852,-0.7851,-0.7851,-0.7851,-0.7971,-0.7974,-0.7978,0,0,0,0,0,0,0,0,0,0,0,0,0,-0.7505,-0.7508,-0.7685,-0.7687,-0.7688,-0.7802,-0.7803,-0.7805,-0.7852,-0.7851,-0.7851,-0.7851,-0.797,-0.7974,-0.7978,0,0,0,0,0,0,0,0,0,0,0,0,0,-0.7599,-0.7509,-0.7685,-0.7725,-0.773,-0.7802,-0.7804,-0.7805,-0.7852,-0.7851,-0.7851,-0.7851,-0.7968,-0.7973,-0.7978,-0.8019,0,0,-0.7994,-0.7996,0,0,0,0,0,0,0,0,-0.7594,-0.7605,-0.7718,-0.7723,-0.7728,-0.7812,-0.7784,-0.7877,-0.7852,-0.7806,-0.7851,-0.785,-0.7918,-0.7928,-0.795,-0.8024,-0.8029,-0.7995,-0.7998,-0.8,-0.8001,0,0,0,0,0,0,0,-0.7587,-0.7601,-0.7732,-0.772,-0.7726,-0.7738,-0.7751,-0.7802,-0.7863,-0.781,-0.7813,-0.7826,-0.7921,-0.7945,-0.7953,-0.8031,-0.7995,-0.7999,-0.8002,-0.8004,-0.8146,-0.8147,0,0,0,0,0,0,-0.7574,-0.7595,-0.7728,-0.7735,-0.7658,-0.7742,-0.7756,-0.7785,-0.7862,-0.7874,-0.7827,-0.7828,-0.7937,-0.7947,-0.7958,-0.8012,-0.8,-0.8005,-0.8008,-0.8146,-0.8146,-0.8147,0,0,0,0,0,0,-0.757,-0.7585,-0.7723,-0.7666,-0.7685,-0.7745,-0.7778,-0.7788,-0.7812,-0.7875,-0.7887,-0.784,-0.7937,-0.7951,-0.8004,-0.8016,-0.8007,-0.8012,-0.8145,-0.8146,-0.8147,-0.8118,0,0,0,0,0,0,-0.7564,-0.7583,-0.7599,-0.7666,-0.7688,-0.7766,-0.7779,-0.7791,-0.7821,-0.7824,-0.7891,-0.7902,-0.7937,-0.7996,-0.8009,-0.8023,-0.8016,-0.8144,-0.8145,-0.8146,-0.8118,-0.8118,-0.8118,0,0,0,0,0,-0.7558,-0.7586,-0.7599,-0.7615,-0.7708,-0.7767,-0.7779,-0.782,-0.7822,-0.7838,-0.7879,-0.7899,-0.8013,-0.8001,-0.8016,-0.8032,-0.8143,-0.8145,-0.8146,-0.8118,-0.8118,-0.8118,0,0,0,0,0,0,-0.7518,-0.7595,-0.7611,-0.7661,-0.7707,-0.7775,-0.7797,-0.7818,-0.7864,-0.7865,-0.7914,-0.7928,-0.7978,-0.801,-0.7996,-0.8076,-0.808,-0.8084,-0.8053,-0.8053,-0.8053,-0.8044,-0.802,0,0,0,0,0,-0.7515,-0.7556,-0.7621,-0.766,-0.7682,-0.7735,-0.7762,-0.779,-0.7839,-0.7859,-0.7904,-0.7951,-0.7998,-0.8027,-0.8073,-0.8123,-0.8139,-0.8142,-0.8141,-0.8141,-0.8145,-0.8175,-0.8177,-0.8152,-0.8152,-0.8152,0,0,-0.7509,-0.7557,-0.7579,-0.7653,-0.7692,-0.7734,-0.7751,-0.7795,-0.7827,-0.7866,-0.7919,-0.7953,-0.801,-0.8062,-0.8087,-0.809,-0.8155,-0.8143,-0.8142,-0.8146,-0.8177,-0.8179,-0.8181,-0.8153,-0.8153,-0.8153,0,0,-0.7521,-0.756,-0.7597,-0.7636,-0.7695,-0.773,-0.7739,-0.7804,-0.7828,-0.7882,-0.7913,-0.7952,-0.8031,-0.807,-0.81,-0.8129,-0.815,-0.8142,-0.8142,-0.8171,-0.8173,-0.8175,-0.8186,-0.8189,-0.8146,-0.8146,-0.8146,0,-0.7506,-0.7571,-0.7613,-0.7656,-0.7688,-0.7726,-0.7764,-0.78,-0.787,-0.7892,-0.7895,-0.7996,-0.8036,-0.8099,-0.8106,-0.8128,-0.8141,-0.8135,-0.8169,-0.8171,-0.8174,-0.8185,-0.8189,-0.8144,-0.8145,-0.8145,-0.8145,0,-0.7551,-0.7595,-0.7618,-0.7686,-0.7721,-0.7761,-0.7811,-0.7841,-0.7865,-0.7901,-0.7956,-0.8007,-0.8064,-0.8081,-0.8105,-0.8148,-0.8148,-0.8159,-0.8164,-0.8174,-0.8186,-0.819,-0.8143,-0.8143,-0.8144,-0.8144,0,0,-0.754,-0.7632,-0.7639,-0.7671,-0.774,-0.7775,-0.7818,-0.7874,-0.79,-0.7948,-0.7986,-0.8052,-0.8063,-0.8098,-0.8127,-0.8152,-0.8173,-0.8161,-0.8163,-0.8162,-0.8225,-0.8216,-0.822,-0.8188,-0.8189,-0.8189,-0.822,0,-0.7561,-0.7638,-0.7679,-0.774,-0.7782,-0.7819,-0.7857,-0.7903,-0.7938,-0.7979,-0.8018,-0.8065,-0.8075,-0.8096,-0.8123,-0.8165,-0.8187,-0.8163,-0.8224,-0.8226,-0.8209,-0.8226,-0.8217,-0.8244,-0.8225,-0.8226,-0.8226,0,-0.7596,-0.7644,-0.7709,-0.7774,-0.7793,-0.7826,-0.7882,-0.7921,-0.7975,-0.7999,-0.8038,-0.8067,-0.8114,-0.8115,-0.8182,-0.8165,-0.8193,-0.8217,-0.8219,-0.8227,-0.8227,-0.8235,-0.8253,-0.8257,-0.8234,-0.8233,-0.8232,0,-0.7582,-0.7663,-0.7713,-0.7739,-0.7816,-0.7838,-0.7871,-0.7925,-0.7957,-0.8006,-0.8028,-0.8082,-0.8112,-0.8153,-0.8197,-0.8193,-0.826,-0.8264,-0.8281,-0.828,-0.8294,-0.8292,-0.8317,-0.831,-0.831,-0.831,-0.831,0,-0.7602,-0.7641,-0.7708,-0.7739,-0.7784,-0.783,-0.7874,-0.791,-0.7958,-0.7997,-0.8032,-0.8068,-0.8123,-0.8166,-0.82,-0.8251,-0.8264,-0.8285,-0.8294,-0.8282,-0.828,-0.8301,-0.8301,-0.8311,-0.8311,-0.8311,-0.831,0,-0.7594,-0.7641,-0.7698,-0.7767,-0.7785,-0.7815,-0.7874,-0.7906,-0.7943,-0.7992,-0.8006,-0.8064,-0.8117,-0.8165,-0.8234,-0.8258,-0.831,-0.832,-0.8291,-0.8296,-0.8312,-0.831,-0.8352,-0.836,-0.8346,-0.8346,-0.8346,0,-0.7604,-0.7635,-0.7707,-0.7736,-0.7768,-0.7814,-0.7847,-0.7895,-0.7928,-0.7993,-0.8018,-0.8073,-0.812,-0.8203,-0.8252,-0.8306,-0.8318,-0.8329,-0.8327,-0.8315,-0.832,-0.8318,-0.8322,-0.8329,-0.8329,-0.8329,-0.8329,0,-0.7617,-0.7639,-0.7685,-0.774,-0.7779,-0.7825,-0.7872,-0.7893,-0.795,-0.7986,-0.8041,-0.8077,-0.8149,-0.8204,-0.8264,-0.8299,-0.8324,-0.8329,-0.8336,-0.8325,-0.8308,-0.8318,-0.8291,-0.8328,-0.8328,-0.8328,-0.8328,-0.8328,-0.7619,-0.7648,-0.7704,-0.7756,-0.7796,-0.7839,-0.7873,-0.7915,-0.7961,-0.8024,-0.8049,-0.8105,-0.816,-0.8243,-0.8278,-0.8323,-0.8328,-0.8338,-0.8341,-0.8342,-0.8341,-0.83,-0.8334,-0.8334,-0.8334,-0.8335,-0.8335,0,-0.7634,-0.7672,-0.7719,-0.7784,-0.7824,-0.7844,-0.7898,-0.7931,-0.7979,-0.8029,-0.8075,-0.8138,-0.8192,-0.8246,-0.8303,-0.8329,-0.8342,-0.8342,-0.8341,-0.8349,-0.8333,-0.8322,-0.8331,-0.8331,-0.8331,-0.8331,-0.8331,-0.8331,-0.7647,-0.7699,-0.7727,-0.78,-0.7839,-0.7894,-0.7923,-0.7963,-0.8003,-0.8073,-0.8118,-0.8153,-0.8205,-0.8266,-0.8317,-0.8332,-0.8351,-0.8349,-0.8366,-0.835,-0.835,-0.835,-0.8339,-0.8353,-0.8353,-0.8379,-0.8379,-0.838]}]]